Regional Weather Roundup
Issued by NWS Little Rock, AR

Current Version | Previous Version | Text Only | Print | Product List | Glossary On
Versions: 1 2 3 4 5 6 7 8 9 10 11 12 13 14 15 16 17 18 19 20 21 22 23 24 25 26 27 28 29 30 31 32 33 34 35 36 37 38 39 40 41 42 43 44 45 46 47 48 49 50
000
ASUS44 KLZK 070505
RWRLZK

WEATHER ROUNDUP FOR ARKANSAS
NATIONAL WEATHER SERVICE LITTLE ROCK AR
1100 PM CST FRI MAR 06 2015

NOTE: "FAIR" INDICATES FEW OR NO CLOUDS BELOW 12,000 FEET WITH NO
SIGNIFICANT WEATHER AND/OR OBSTRUCTIONS TO VISIBILITY.

ARZ001-003-010-029-070600-
NORTHWEST ARKANSAS

CITY           SKY/WX    TMP DP  RH WIND       PRES   REMARKS
FAYETTEVILLE   CLEAR     30  25  81 CALM      30.40F
FORT SMITH     CLEAR     39  25  57 W5        30.44R
HARRISON       CLEAR     37  24  59 SE6       30.38S
BENTONVILLE    CLEAR     36  23  60 S6        30.39S
ROGERS         CLEAR     36  25  64 S9        30.39S
SILOAM SPGS    CLEAR     36  21  55 S9        30.41S
HIGHFILL       FAIR      36  23  59 SW5       30.38S
$$

ARZ004-005-016-070600-
NORTH CENTRAL ARKANSAS

CITY           SKY/WX    TMP DP  RH WIND       PRES   REMARKS
BATESVILLE     CLEAR     34  18  51 S7        30.45S WCI  28
FLIPPIN        CLEAR     34  23  64 CALM      30.40S
MTN HOME       CLEAR     38  23  55 SW7       30.39S
$$

ARZ040-041-070600-
WEST CENTRAL ARKANSAS

CITY           SKY/WX    TMP DP  RH WIND       PRES   REMARKS
MENA           CLEAR     37  27  65 SW5       30.45S
MOUNT IDA      CLEAR     31  25  78 CALM      30.43R
$$

ARZ009-017-025-026-028-070600-
NORTHEAST ARKANSAS

CITY           SKY/WX    TMP DP  RH WIND       PRES   REMARKS
CORNING        FAIR      25  19  80 SW7       30.45S WCI  17
JONESBORO      CLEAR     20  18  92 CALM      30.46S
NEWPORT        CLEAR     24  20  85 S7        30.48S WCI  16
WALNUT RIDGE   CLEAR     23  16  74 S8        30.46R WCI  14
BLYTHEVILLE    PTCLDY    27  15  61 S9        30.47S WCI  18
$$

ARZ022-023-033-042-044-070600-
CENTRAL ARKANSAS

CITY           SKY/WX    TMP DP  RH WIND       PRES   REMARKS
LITTLE ROCK    CLEAR     32  20  61 S7        30.49S WCI  26
N LITTLE ROCK  CLEAR     32  25  76 SW8       30.49S WCI  25
JACKSONVILLE   CLEAR     26  23  91 SW1       30.47S
SEARCY         CLEAR     29  22  75 SW3       30.49F
HOT SPRINGS    CLEAR     31  24  75 CALM      30.48S
RUSSELLVILLE   CLEAR     33  26  75 CALM      30.44R
CLINTON        FAIR      27  25  93 CALM      30.47S
$$

ARZ036-070600-
EAST ARKANSAS

CITY           SKY/WX    TMP DP  RH WIND       PRES   REMARKS
WEST MEMPHIS   CLEAR     27  20  75 S7        30.47F WCI  19
$$

ARZ050-053-066-070-073-070600-
SOUTHWEST ARKANSAS

CITY           SKY/WX    TMP DP  RH WIND       PRES   REMARKS
ARKADELPHIA    FAIR      33  31  93 CALM      30.51S
CAMDEN         CLEAR     27  25  93 CALM      30.52S
TEXARKANA      CLEAR     35  24  64 CALM      30.50R
EL DORADO      CLEAR     30  25  81 CALM      30.52S
DE QUEEN       CLEAR     29  27  92 CALM      30.48R
$$

ARZ056-057-069-070600-
SOUTHEAST ARKANSAS

CITY           SKY/WX    TMP DP  RH WIND       PRES   REMARKS
PINE BLUFF     CLEAR     30  22  72 S6        30.51S WCI  24
STUTTGART      CLEAR     32  23  69 S8        30.50S WCI  25
MONTICELLO     CLEAR     33  23  66 SE5       30.51S WCI  29

$$




USA.gov is the U.S. government's official web portal to all federal, state and local government web resources and services.